| time (UTC) | temp F | wind direction | speed MPH | gust MPH | rain 1hr in | rain 24hr in | rain mn in | humidity % | barometer mb |
| 20260508020304 | 66 | 157 | 4.0 | 8.0 | 0.00 | 0.00 | 0.00 | 64 | 1012.9 |
| 20260508012808 | 67 | 156 | 7.0 | 10.0 | 0.00 | 0.00 | 0.00 | 64 | 1012.9 |
| 20260508011809 | 67 | 171 | 6.0 | 10.0 | 0.00 | 0.00 | 0.00 | 63 | 1013.0 |
| 20260508011308 | 67 | 163 | 6.0 | 12.0 | 0.00 | 0.00 | 0.00 | 63 | 1013.0 |
| 20260508010308 | 68 | 167 | 6.0 | 8.0 | 0.00 | 0.00 | 0.00 | 64 | 1013.0 |
| 20260508005808 | 68 | 152 | 6.0 | 10.0 | 0.00 | 0.00 | 0.00 | 63 | 1012.8 |
| 20260508005308 | 68 | 148 | 7.0 | 12.0 | 0.00 | 0.00 | 0.00 | 63 | 1012.8 |
| 20260508004308 | 69 | 150 | 5.0 | 9.0 | 0.00 | 0.00 | 0.00 | 63 | 1012.8 |
| 20260508003308 | 69 | 154 | 7.0 | 12.0 | 0.00 | 0.00 | 0.00 | 61 | 1012.8 |
| 20260508002308 | 70 | 139 | 7.0 | 13.0 | 0.00 | 0.00 | 0.00 | 60 | 1012.9 |
| 20260508000808 | 72 | 136 | 3.0 | 9.0 | 0.00 | 0.00 | 0.00 | 52 | 1012.9 |
| 20260507235808 | 72 | 127 | 5.0 | 8.0 | 0.00 | 0.00 | 0.00 | 52 | 1012.9 |
| 20260507235307 | 72 | 127 | 5.0 | 9.0 | 0.00 | 0.00 | 0.00 | 52 | 1012.8 |
| 20260507232807 | 72 | 142 | 4.0 | 8.0 | 0.00 | 0.00 | 0.00 | 52 | 1012.8 |
| 20260507232308 | 72 | 106 | 5.0 | 9.0 | 0.00 | 0.00 | 0.00 | 52 | 1012.8 |
| 20260507230807 | 73 | 116 | 5.0 | 9.0 | 0.00 | 0.00 | 0.00 | 52 | 1012.8 |
| 20260507230308 | 73 | 119 | 5.0 | 9.0 | 0.00 | 0.00 | 0.00 | 52 | 1012.8 |
| 20260507223807 | 74 | 65 | 1.0 | 3.0 | 0.00 | 0.00 | 0.00 | 47 | 1013.1 |
| 20260507222808 | 74 | 94 | 1.0 | 5.0 | 0.00 | 0.00 | 0.00 | 47 | 1013.1 |
| 20260507222308 | 74 | 94 | 2.0 | 5.0 | 0.00 | 0.00 | 0.00 | 47 | 1013.2 |
| 20260507221307 | 74 | 129 | 2.0 | 5.0 | 0.00 | 0.00 | 0.00 | 47 | 1013.5 |
| 20260507214808 | 75 | 84 | 3.0 | 6.0 | 0.00 | 0.00 | 0.00 | 46 | 1013.5 |
| 20260507214307 | 75 | 60 | 2.0 | 3.0 | 0.00 | 0.00 | 0.00 | 46 | 1013.5 |
| 20260507213307 | 75 | 29 | 3.0 | 5.0 | 0.00 | 0.00 | 0.00 | 47 | 1013.5 |
| 20260507212807 | 75 | 36 | 3.0 | 5.0 | 0.00 | 0.00 | 0.00 | 45 | 1013.5 |
| 20260507212308 | 76 | 16 | 2.0 | 5.0 | 0.00 | 0.00 | 0.00 | 46 | 1013.5 |
| 20260507211308 | 76 | 11 | 2.0 | 3.0 | 0.00 | 0.00 | 0.00 | 46 | 1013.5 |
| 20260507210807 | 75 | 10 | 3.0 | 7.0 | 0.00 | 0.00 | 0.00 | 47 | 1013.6 |
| 20260507205807 | 76 | 333 | 4.0 | 7.0 | 0.00 | 0.00 | 0.00 | 44 | 1013.6 |
| 20260507204807 | 76 | 93 | 2.0 | 7.0 | 0.00 | 0.00 | 0.00 | 43 | 1013.7 |
| 20260507204307 | 75 | 92 | 1.0 | 5.0 | 0.00 | 0.00 | 0.00 | 45 | 1013.9 |
| 20260507201307 | 76 | 340 | 3.0 | 12.0 | 0.00 | 0.00 | 0.00 | 43 | 1014.3 |
| 20260507200308 | 75 | 333 | 3.0 | 9.0 | 0.00 | 0.00 | 0.00 | 45 | 1014.3 |
| 20260507195807 | 75 | 36 | 4.0 | 6.0 | 0.00 | 0.00 | 0.00 | 46 | 1014.3 |
| 20260507195307 | 75 | 40 | 3.0 | 8.0 | 0.00 | 0.00 | 0.00 | 45 | 1014.4 |
| 20260507194807 | 75 | 353 | 4.0 | 10.0 | 0.00 | 0.00 | 0.00 | 43 | 1014.6 |
| 20260507194307 | 75 | 346 | 6.0 | 10.0 | 0.00 | 0.00 | 0.00 | 46 | 1014.8 |
| 20260507193307 | 74 | 2 | 3.0 | 8.0 | 0.00 | 0.00 | 0.00 | 45 | 1014.9 |
| 20260507191307 | 74 | 73 | 5.0 | 9.0 | 0.00 | 0.00 | 0.00 | 48 | 1015.1 |
| 20260507190807 | 73 | 348 | 5.0 | 10.0 | 0.00 | 0.00 | 0.00 | 46 | 1015.1 |
| 20260507190307 | 73 | 32 | 4.0 | 9.0 | 0.00 | 0.00 | 0.00 | 47 | 1015.1 |
| 20260507185307 | 74 | 10 | 4.0 | 12.0 | 0.00 | 0.00 | 0.00 | 46 | 1015.7 |
| 20260507182307 | 72 | 342 | 9.0 | 13.0 | 0.00 | 0.00 | 0.00 | 47 | 1015.7 |
| 20260507181807 | 71 | 328 | 5.0 | 12.0 | 0.00 | 0.00 | 0.00 | 48 | 1015.7 |
| 20260507175307 | 70 | 37 | 6.0 | 10.0 | 0.00 | 0.00 | 0.00 | 51 | 1016.6 |
| 20260507174307 | 69 | 39 | 6.0 | 12.0 | 0.00 | 0.00 | 0.00 | 51 | 1016.6 |
| 20260507173807 | 70 | 86 | 3.0 | 7.0 | 0.00 | 0.00 | 0.00 | 51 | 1016.6 |
| 20260507172308 | 69 | 36 | 5.0 | 10.0 | 0.00 | 0.00 | 0.00 | 52 | 1017.4 |
| 20260507171307 | 68 | 11 | 5.0 | 10.0 | 0.00 | 0.00 | 0.00 | 54 | 1017.4 |
| 20260507170307 | 68 | 40 | 1.0 | 3.0 | 0.00 | 0.00 | 0.00 | 54 | 1017.4 |
| 20260507163807 | 67 | 38 | 3.0 | 5.0 | 0.00 | 0.00 | 0.00 | 57 | 1017.7 |
| 20260507162806 | 68 | 36 | 2.0 | 6.0 | 0.00 | 0.00 | 0.00 | 56 | 1017.5 |
| 20260507162307 | 68 | 48 | 4.0 | 7.0 | 0.00 | 0.00 | 0.00 | 57 | 1017.6 |
| 20260507161806 | 67 | 82 | 3.0 | 7.0 | 0.00 | 0.00 | 0.00 | 57 | 1017.7 |
| 20260507160306 | 65 | 25 | 5.0 | 12.0 | 0.00 | 0.00 | 0.00 | 60 | 1017.6 |
| 20260507155807 | 66 | 56 | 3.0 | 6.0 | 0.00 | 0.00 | 0.00 | 60 | 1017.8 |
| 20260507154806 | 65 | 17 | 5.0 | 9.0 | 0.00 | 0.00 | 0.00 | 61 | 1017.7 |
| 20260507151306 | 63 | 74 | 2.0 | 8.0 | 0.00 | 0.23 | 0.00 | 65 | 1018.1 |
| 20260507150806 | 63 | 38 | 4.0 | 7.0 | 0.00 | 0.23 | 0.00 | 66 | 1018.1 |
| 20260507150306 | 62 | 3 | 4.0 | 8.0 | 0.00 | 0.23 | 0.00 | 66 | 1018.1 |
| 20260507145807 | 61 | 1 | 3.0 | 7.0 | 0.00 | 0.23 | 0.00 | 70 | 1018.1 |
| 20260507143807 | 60 | 19 | 3.0 | 6.0 | 0.00 | 0.23 | 0.00 | 75 | 1018.2 |
| 20260507142307 | 58 | 33 | 3.0 | 7.0 | 0.00 | 0.23 | 0.00 | 79 | 1018.2 |
| 20260507141806 | 58 | 8 | 3.0 | 5.0 | 0.00 | 0.23 | 0.00 | 80 | 1018.2 |
| 20260507140806 | 57 | 42 | 2.0 | 5.0 | 0.00 | 0.23 | 0.00 | 82 | 1018.4 |
| 20260507140307 | 57 | 46 | 2.0 | 6.0 | 0.00 | 0.23 | 0.00 | 84 | 1018.4 |
| 20260507135806 | 56 | 349 | 3.0 | 6.0 | 0.00 | 0.23 | 0.00 | 84 | 1018.6 |
| 20260507133307 | 55 | 351 | 4.0 | 6.0 | 0.00 | 0.23 | 0.00 | 88 | 1018.6 |
| 20260507132307 | 54 | 340 | 1.0 | 5.0 | 0.00 | 0.23 | 0.00 | 90 | 1018.6 |
| 20260507131306 | 54 | 337 | 1.0 | 3.0 | 0.00 | 0.23 | 0.00 | 90 | 1018.5 |
| 20260507130807 | 54 | 338 | 3.0 | 6.0 | 0.00 | 0.23 | 0.00 | 91 | 1018.5 |
| 20260507130306 | 54 | 338 | 2.0 | 6.0 | 0.00 | 0.23 | 0.00 | 91 | 1018.4 |
| 20260507125806 | 53 | 338 | 1.0 | 5.0 | 0.00 | 0.23 | 0.00 | 91 | 1018.3 |
| 20260507125307 | 53 | 333 | 3.0 | 6.0 | 0.00 | 0.23 | 0.00 | 91 | 1018.3 |
| 20260507121805 | 52 | 313 | 2.0 | 3.0 | 0.00 | 0.23 | 0.00 | 92 | 1017.7 |
| 20260507121306 | 52 | 310 | 1.0 | 5.0 | 0.00 | 0.23 | 0.00 | 92 | 1017.7 |
| 20260507120306 | 51 | 311 | 1.0 | 3.0 | 0.00 | 0.23 | 0.00 | 92 | 1017.7 |
| 20260507115806 | 51 | 311 | 1.0 | 3.0 | 0.00 | 0.23 | 0.00 | 92 | 1017.7 |
| 20260507115307 | 51 | 311 | 2.0 | 3.0 | 0.00 | 0.23 | 0.00 | 92 | 1017.7 |
| 20260507113805 | 51 | 311 | 1.0 | 3.0 | 0.00 | 0.23 | 0.00 | 92 | 1017.6 |
| 20260507113306 | 51 | 311 | 1.0 | 3.0 | 0.00 | 0.23 | 0.00 | 92 | 1017.5 |
| 20260507112806 | 51 | 311 | 1.0 | 2.0 | 0.00 | 0.23 | 0.00 | 92 | 1017.5 |
| 20260507111806 | 51 | 311 | 2.0 | 3.0 | 0.00 | 0.23 | 0.00 | 92 | 1017.2 |
| 20260507111305 | 51 | 311 | 2.0 | 5.0 | 0.00 | 0.23 | 0.00 | 92 | 1017.2 |
| 20260507110806 | 51 | 309 | 2.0 | 6.0 | 0.00 | 0.23 | 0.00 | 92 | 1017.2 |
| 20260507110306 | 51 | 336 | 2.0 | 3.0 | 0.00 | 0.23 | 0.00 | 92 | 1017.2 |
| 20260507105806 | 51 | 19 | 1.0 | 3.0 | 0.00 | 0.23 | 0.00 | 92 | 1017.1 |
| 20260507105307 | 51 | 19 | 1.0 | 3.0 | 0.00 | 0.23 | 0.00 | 92 | 1017.1 |
| 20260507104806 | 51 | 19 | 2.0 | 3.0 | 0.00 | 0.23 | 0.00 | 92 | 1017.1 |
| 20260507104306 | 51 | 19 | 1.0 | 3.0 | 0.00 | 0.23 | 0.00 | 91 | 1016.7 |
| 20260507102806 | 51 | 39 | 0.0 | 2.0 | 0.00 | 0.23 | 0.00 | 91 | 1016.7 |
| 20260507102307 | 51 | 39 | 1.0 | 1.0 | 0.00 | 0.23 | 0.00 | 91 | 1016.6 |
| 20260507100805 | 52 | 39 | 0.0 | 1.0 | 0.00 | 0.23 | 0.00 | 90 | 1016.3 |
| 20260507100306 | 52 | 39 | 1.0 | 2.0 | 0.00 | 0.23 | 0.00 | 90 | 1016.1 |
| 20260507095306 | 52 | 39 | 1.0 | 1.0 | 0.00 | 0.23 | 0.00 | 90 | 1016.1 |
| 20260507094305 | 52 | 40 | 1.0 | 3.0 | 0.00 | 0.23 | 0.00 | 90 | 1016.0 |
| 20260507092307 | 53 | 40 | 1.0 | 2.0 | 0.00 | 0.23 | 0.00 | 89 | 1015.9 |
| 20260507090306 | 53 | 39 | 0.0 | 1.0 | 0.00 | 0.23 | 0.00 | 89 | 1016.0 |
| 20260507085805 | 53 | 39 | 1.0 | 3.0 | 0.00 | 0.23 | 0.00 | 88 | 1016.0 |
| 20260507084806 | 53 | 40 | 1.0 | 3.0 | 0.00 | 0.23 | 0.00 | 88 | 1015.8 |
| 20260507083805 | 54 | 41 | 0.0 | 1.0 | 0.00 | 0.23 | 0.00 | 87 | 1015.9 |
| 20260507082306 | 54 | 42 | 0.0 | 3.0 | 0.00 | 0.23 | 0.00 | 87 | 1015.6 |
| 20260507081806 | 54 | 42 | 1.0 | 3.0 | 0.00 | 0.23 | 0.00 | 87 | 1015.6 |
| 20260507080305 | 54 | 38 | 2.0 | 3.0 | 0.00 | 0.23 | 0.00 | 87 | 1015.6 |
| 20260507075805 | 54 | 23 | 3.0 | 6.0 | 0.00 | 0.23 | 0.00 | 87 | 1015.5 |
| 20260507075307 | 55 | 40 | 2.0 | 7.0 | 0.00 | 0.23 | 0.00 | 87 | 1015.5 |
| 20260507073805 | 55 | 43 | 2.0 | 6.0 | 0.00 | 0.23 | 0.00 | 86 | 1015.6 |
| 20260507073306 | 55 | 51 | 2.0 | 7.0 | 0.00 | 0.23 | 0.00 | 86 | 1015.6 |
| 20260507072806 | 55 | 36 | 3.0 | 7.0 | 0.00 | 0.23 | 0.00 | 86 | 1015.6 |
| 20260507071805 | 55 | 30 | 2.0 | 7.0 | 0.00 | 0.23 | 0.00 | 86 | 1015.6 |
| 20260507070806 | 55 | 36 | 2.0 | 6.0 | 0.00 | 0.23 | 0.00 | 86 | 1015.7 |
| 20260507065805 | 55 | 42 | 1.0 | 5.0 | 0.00 | 0.23 | 0.00 | 86 | 1015.7 |
| 20260507065306 | 55 | 62 | 1.0 | 3.0 | 0.00 | 0.23 | 0.00 | 86 | 1015.8 |
| 20260507064805 | 55 | 62 | 2.0 | 6.0 | 0.00 | 0.23 | 0.00 | 86 | 1015.5 |
| 20260507064305 | 55 | 44 | 3.0 | 6.0 | 0.00 | 0.23 | 0.00 | 86 | 1015.5 |
| 20260507063305 | 56 | 78 | 2.0 | 7.0 | 0.00 | 0.23 | 0.00 | 86 | 1015.4 |
| 20260507062306 | 56 | 76 | 2.0 | 5.0 | 0.00 | 0.23 | 0.00 | 86 | 1015.3 |
| 20260507055805 | 56 | 79 | 3.0 | 7.0 | 0.00 | 0.23 | 0.00 | 84 | 1015.0 |
| 20260507054805 | 56 | 77 | 3.0 | 6.0 | 0.00 | 0.23 | 0.00 | 84 | 1015.0 |
| 20260507053805 | 57 | 81 | 3.0 | 6.0 | 0.00 | 0.23 | 0.00 | 83 | 1015.0 |
| 20260507052306 | 57 | 80 | 1.0 | 6.0 | 0.00 | 0.23 | 0.00 | 82 | 1015.1 |
| 20260507051305 | 57 | 69 | 3.0 | 7.0 | 0.00 | 0.23 | 0.00 | 81 | 1015.2 |
| 20260507050931 | 57 | 66 | 3.0 | 6.0 | 0.00 | 0.23 | 0.00 | 81 | 1015.2 |
| 20260507045804 | 57 | 65 | 2.0 | 6.0 | 0.00 | 0.23 | 0.23 | 80 | 1015.2 |
| 20260507044805 | 57 | 50 | 3.0 | 6.0 | 0.00 | 0.23 | 0.23 | 80 | 1015.2 |
| 20260507043805 | 58 | 65 | 4.0 | 10.0 | 0.00 | 0.23 | 0.23 | 79 | 1015.3 |
| 20260507042306 | 58 | 58 | 3.0 | 6.0 | 0.00 | 0.23 | 0.23 | 78 | 1015.5 |
| 20260507040304 | 58 | 50 | 5.0 | 12.0 | 0.00 | 0.23 | 0.23 | 77 | 1015.7 |
| 20260507033805 | 58 | 42 | 5.0 | 12.0 | 0.00 | 0.23 | 0.23 | 76 | 1015.6 |
| 20260507033304 | 59 | 35 | 7.0 | 13.0 | 0.00 | 0.23 | 0.23 | 76 | 1015.5 |
| 20260507032805 | 59 | 15 | 6.0 | 12.0 | 0.00 | 0.23 | 0.23 | 76 | 1015.5 |
| 20260507031304 | 59 | 24 | 4.0 | 10.0 | 0.00 | 0.23 | 0.23 | 76 | 1015.5 |
| 20260507030804 | 59 | 33 | 5.0 | 10.0 | 0.00 | 0.23 | 0.23 | 76 | 1015.2 |
| 20260507024805 | 59 | 31 | 6.0 | 13.0 | 0.00 | 0.23 | 0.23 | 79 | 1014.9 |
| 20260507024304 | 59 | 31 | 7.0 | 14.0 | 0.00 | 0.23 | 0.23 | 79 | 1014.8 |